Hourly Data Report for October 27, 2019

All times are specified in Local Standard Time (LST). Add 1 hour to adjust for Daylight Saving Time where and when it is observed.

SEPT-ILES
QUEBEC
Current Station Operator: ECCC - MSC

50°13'00.000" N
66°15'00.000" W
52.60 m
7047914
71279
XZV

Download Data

Hourly Data (October 2019)
Hourly Data Report for October 27, 2019
TIME Temp Definition
°C
Dew Point Definition
°C
Rel Hum Definition
%
Wind Dir Definition
10's deg

Wind Spd Definition
km/h
Visibility Definition
km
Stn Press Definition
kPa
Hmdx Definition


Wind Chill Definition


Weather Definition


00:00 0.9 -3.6 72 1 5   101.86     LegendNANA
01:00 0.3 -4.3 71 1 6   101.91     LegendNANA
02:00 -0.1 -4.5 72 1 9   101.94   -3 LegendNANA
03:00 -2.9 -5.3 83 1 3   101.96   -4 LegendNANA
04:00 -2.6 -4.7 86 2 6   101.99   -5 LegendNANA
05:00 -2.7 -5.4 82 2 6   102.00   -5 LegendNANA
06:00 -2.9 -4.9 86 3 7   102.06   -6 LegendNANA
07:00 -1.5 -4.5 80 2 9   102.09   -5 LegendNANA
08:00 1.0 -3.4 73 3 8   102.05     LegendNANA
09:00 3.6 -3.2 61 2 5   102.03     LegendNANA
10:00 4.8 -6.0 45 9 7   101.99     LegendNANA
11:00 4.8 -5.5 47 15 10   101.98     LegendNANA
12:00 5.2 -5.2 47 16 8   101.88     LegendNANA
13:00 4.9 -5.1 48 17 8   101.82     LegendNANA
14:00 4.6 -4.8 50 18 6   101.76     LegendNANA
15:00 3.8 -4.2 56 19 4   101.72     LegendNANA
16:00 2.2 -4.0 64   0   101.65     LegendNANA
17:00 -0.3 -4.8 72 4 3   101.64   -1 LegendNANA
18:00 -0.3 -4.6 72 4 4   101.62   -2 LegendNANA
19:00 -0.4 -4.3 75 4 5   101.63   -2 LegendNANA
20:00 0.1 -3.9 75 2 5   101.65     LegendNANA
21:00 -0.2 -3.9 76 4 5   101.58   -2 LegendNANA
22:00 -0.4 -3.8 77 3 7   101.58   -3 LegendNANA
23:00 0.0 -3.8 76 5 6   101.56   -2 LegendNANA

Notes on Data Quality.

Legend

  • E = Estimated
  • M = Missing
  • NA = Not Available
Date modified: